THORAD DELTA 1 DEB, 8160

Orbit data source: Space-Track

THORAD DELTA 1 DEB, 8160 is space debris in SSO originally from a launch on Fri, 15 Nov 1974 UTC launched from the Air Force Western Test Range (AFWTR). Debris objects in space refer to the collection of defunct objects orbiting the Earth. Examples of debris include non-operational satellites, rocket bodies, and fragments generated from explosions, collisions, or faulty payload assembly.

Loading next visibility...
Identifier
8160, 1974-089AA
Orbit
SSO
Country
Flag of USUS
Related business
Manufacturer
Unknown
Mission
Spacecraft
Bus & Motor
Unknown
Mass
Unknown
Launch date (UTC)
1974-11-15 (52 years ago)
Launch vehicle
Unknown
Launch site
Air Force Western Test Range (AFWTR)
Object type
Payload
Rocket body
Debris
Shape & HBR
Unknown shape, 0.1 m
Radar Cross Section
Medium (>0.1 m² and <1 m²)

Expand to show TLE details & history
Last TLE update: 2 days ago

TLE from 2 days ago
0 THORAD DELTA 1 DEB
1  8160U 74089AA  26171.37063058 -.00000016  00000-0  16056-3 0  9991
2  8160 101.8276 309.0973 0146968  77.3579 308.2172 12.63542112378261
Epoch: 2026-06-20T08:53Z
TLE epoch observation values (Epoch: 2026-06-20T08:53:42.482Z)
Latitude
23.71391°
Longitude
-98.16744°
Altitude
1,341.183 km
Speed
7.221 km/s
True Right ascension
20h 15m 22s
True Declination
23° 35' 50"
Sunlit
Object was in daylight at epoch
Visualization orbit readout
Latitude
Unknown
Longitude
Unknown
Altitude
Unknown
Speed
Unknown
Apparent Right ascension
Unknown
Apparent Declination
Unknown
Sunlit
N/A
Visualization observer readout
Local Sidereal Time
00:49:54
Azimuth
Unknown
Elevation
Unknown
Doppler factor
Unknown
Orbital elements
Apogee altitude
1,520.292 km
Perigee altitude
1,291.491 km
Semi-major axis
7,784.028 km
Eccentricity
0.0147
Inclination
101.8276°
RAAN
309.0973°
Arg. of periapsis
77.3579°
True anomaly
306.87895°
Mean anomaly
308.2172°
Eccentric anomaly
307.54959°
Mean motion
3.16036 °/min
Orbital period
113.91 mins
BSTAR
0.00016056

Documentation

Showing up to 5 results
|